• In Hungary
  • List of Countries
  • For 7 days
  • Water Temperature
  • Satellite Maps
  • Weather Map
  • News
  • Weather Widgets
  • user-avatar
    Login

    Hourly Weather Antwerp

    Today, 25 June, Monday

    Time Temperature Precipitation Wind Pressure Humidity
    00:00 +13°C° 0 mm 2 mps 767 mmHg 93%
    01:00 +13°C° 0 mm 2 mps 767 mmHg 93%
    02:00 +13°C° 0 mm 2 mps 767 mmHg 94%
    03:00 +13°C° 0 mm 2 mps 767 mmHg 94%
    04:00 +14°C° 0 mm 2 mps 768 mmHg 91%
    05:00 +15°C° 0 mm 2 mps 768 mmHg 88%
    06:00 +16°C° 0 mm 2 mps 768 mmHg 85%
    07:00 +17°C° 0 mm 2 mps 768 mmHg 80%
    08:00 +18°C° 0 mm 2 mps 768 mmHg 74%
    09:00 +20°C° 0 mm 2 mps 768 mmHg 69%
    10:00 +20°C° 0 mm 2 mps 768 mmHg 65%
    11:00 +21°C° 0 mm 3 mps 768 mmHg 61%
    12:00 +22°C° 0 mm 3 mps 768 mmHg 57%
    13:00 +24°C° 0 mm 3 mps 768 mmHg 55%
    14:00 +23°C° 0 mm 4 mps 768 mmHg 53%
    15:00 +25°C° 0 mm 4 mps 768 mmHg 52%
    16:00 +23°C° 0 mm 4 mps 768 mmHg 55%
    17:00 +22°C° 0 mm 4 mps 768 mmHg 58%
    18:00 +21°C° 0 mm 4 mps 768 mmHg 62%
    19:00 +19°C° 0 mm 4 mps 768 mmHg 67%
    20:00 +17°C° 0 mm 3 mps 768 mmHg 73%
    21:00 +14°C° 0 mm 3 mps 768 mmHg 78%
    22:00 +14°C° 0 mm 3 mps 769 mmHg 81%
    23:00 +13°C° 0 mm 3 mps 769 mmHg 84%

    Tomorrow, 26 June, Tuesday

    Time Temperature Precipitation Wind Pressure Humidity
    00:00 +13°C° 0 mm 2 mps 769 mmHg 88%
    01:00 +12°C° 0 mm 2 mps 769 mmHg 89%
    02:00 +12°C° 0 mm 2 mps 769 mmHg 90%
    03:00 +10°C° 0 mm 2 mps 768 mmHg 91%
    04:00 +12°C° 0 mm 2 mps 769 mmHg 87%
    05:00 +13°C° 0 mm 2 mps 769 mmHg 83%
    06:00 +14°C° 0 mm 2 mps 769 mmHg 79%
    07:00 +16°C° 0 mm 2 mps 769 mmHg 71%
    08:00 +18°C° 0 mm 3 mps 769 mmHg 62%
    09:00 +19°C° 0 mm 3 mps 769 mmHg 54%
    10:00 +21°C° 0 mm 3 mps 769 mmHg 51%
    11:00 +22°C° 0 mm 4 mps 768 mmHg 48%
    12:00 +23°C° 0 mm 4 mps 768 mmHg 45%
    13:00 +23°C° 0 mm 4 mps 768 mmHg 46%
    14:00 +25°C° 0 mm 4 mps 768 mmHg 46%
    15:00 +25°C° 0 mm 4 mps 768 mmHg 46%
    16:00 +25°C° 0 mm 4 mps 768 mmHg 51%
    17:00 +23°C° 0 mm 4 mps 767 mmHg 56%
    18:00 +22°C° 0 mm 4 mps 767 mmHg 60%
    19:00 +20°C° 0 mm 4 mps 768 mmHg 66%
    20:00 +19°C° 0 mm 3 mps 768 mmHg 71%
    21:00 +17°C° 0 mm 3 mps 768 mmHg 77%
    22:00 +16°C° 0 mm 3 mps 768 mmHg 81%
    23:00 +16°C° 0 mm 3 mps 768 mmHg 85%

    Day after tomorrow, 27 June, Wednesday

    Time Temperature Precipitation Wind Pressure Humidity
    00:00 +14°C° 0 mm 3 mps 768 mmHg 89%
    01:00 +14°C° 0 mm 3 mps 768 mmHg 91%
    02:00 +13°C° 0 mm 3 mps 768 mmHg 93%
    03:00 +14°C° 0 mm 2 mps 768 mmHg 95%
    04:00 +14°C° 0 mm 3 mps 768 mmHg 93%
    05:00 +16°C° 0 mm 3 mps 768 mmHg 90%
    06:00 +17°C° 0 mm 3 mps 768 mmHg 87%
    07:00 +19°C° 0 mm 3 mps 768 mmHg 80%
    08:00 +21°C° 0 mm 3 mps 768 mmHg 72%
    09:00 +25°C° 0 mm 4 mps 768 mmHg 64%
    10:00 +26°C° 0 mm 4 mps 767 mmHg 60%
    11:00 +27°C° 0 mm 4 mps 767 mmHg 56%
    12:00 +28°C° 0 mm 4 mps 767 mmHg 52%
    13:00 +28°C° 0 mm 5 mps 767 mmHg 50%
    14:00 +29°C° 0 mm 5 mps 766 mmHg 48%
    15:00 +29°C° 0 mm 5 mps 766 mmHg 46%
    16:00 +28°C° 0 mm 5 mps 766 mmHg 50%
    17:00 +27°C° 0 mm 5 mps 766 mmHg 53%
    18:00 +26°C° 0 mm 4 mps 766 mmHg 57%
    19:00 +25°C° 0 mm 4 mps 767 mmHg 59%
    20:00 +22°C° 0 mm 4 mps 767 mmHg 61%
    21:00 +21°C° 0 mm 4 mps 767 mmHg 64%
    22:00 +20°C° 0 mm 4 mps 767 mmHg 68%
    23:00 +19°C° 0 mm 3 mps 767 mmHg 71%

    28 June, Thursday

    Time Temperature Precipitation Wind Pressure Humidity
    00:00 +18°C° 0 mm 3 mps 767 mmHg 75%
    01:00 +17°C° 0 mm 3 mps 767 mmHg 79%
    02:00 +17°C° 0 mm 3 mps 767 mmHg 83%
    03:00 +16°C° 0 mm 3 mps 767 mmHg 87%
    04:00 +17°C° 0 mm 3 mps 767 mmHg 84%
    05:00 +18°C° 0 mm 3 mps 767 mmHg 80%
    06:00 +19°C° 0 mm 3 mps 767 mmHg 77%
    07:00 +21°C° 0 mm 3 mps 767 mmHg 70%
    08:00 +23°C° 0 mm 4 mps 767 mmHg 62%
    09:00 +25°C° 0 mm 4 mps 767 mmHg 54%
    10:00 +26°C° 0 mm 4 mps 766 mmHg 51%
    11:00 +27°C° 0 mm 5 mps 766 mmHg 48%
    12:00 +28°C° 0 mm 5 mps 766 mmHg 45%
    13:00 +28°C° 0 mm 5 mps 766 mmHg 44%
    14:00 +28°C° 0 mm 5 mps 765 mmHg 44%
    15:00 +28°C° 0 mm 5 mps 765 mmHg 43%
    16:00 +28°C° 0 mm 5 mps 765 mmHg 47%
    17:00 +27°C° 0 mm 5 mps 765 mmHg 52%
    18:00 +26°C° 0 mm 4 mps 765 mmHg 56%
    19:00 +25°C° 0 mm 4 mps 765 mmHg 61%
    20:00 +23°C° 0 mm 4 mps 765 mmHg 65%
    21:00 +21°C° 0 mm 4 mps 765 mmHg 70%
    22:00 +21°C° 0 mm 4 mps 765 mmHg 74%
    23:00 +20°C° 0 mm 4 mps 765 mmHg 78%

    29 June, Friday

    Time Temperature Precipitation Wind Pressure Humidity
    00:00 +19°C° 0 mm 4 mps 765 mmHg 82%
    01:00 +19°C° 0 mm 4 mps 765 mmHg 84%
    02:00 +18°C° 0 mm 4 mps 765 mmHg 87%
    03:00 +17°C° 0 mm 4 mps 764 mmHg 90%
    04:00 +18°C° 0 mm 4 mps 764 mmHg 87%
    05:00 +19°C° 0 mm 4 mps 764 mmHg 84%
    06:00 +19°C° 0 mm 5 mps 764 mmHg 81%
    07:00 +21°C° 0 mm 5 mps 764 mmHg 74%
    08:00 +23°C° 0 mm 5 mps 764 mmHg 67%
    09:00 +25°C° 0 mm 5 mps 764 mmHg 61%
    10:00 +27°C° 0 mm 5 mps 764 mmHg 56%
    11:00 +28°C° 0 mm 5 mps 763 mmHg 52%
    12:00 +29°C° 0 mm 6 mps 763 mmHg 48%
    13:00 +30°C° 0 mm 6 mps 763 mmHg 47%
    14:00 +30°C° 0 mm 6 mps 763 mmHg 46%
    15:00 +30°C° 0 mm 6 mps 762 mmHg 45%
    16:00 +29°C° 0 mm 6 mps 762 mmHg 49%
    17:00 +29°C° 0 mm 5 mps 762 mmHg 52%
    18:00 +28°C° 0 mm 5 mps 762 mmHg 55%
    19:00 +27°C° 0 mm 5 mps 762 mmHg 59%
    20:00 +25°C° 0 mm 5 mps 762 mmHg 62%
    21:00 +23°C° 0 mm 5 mps 763 mmHg 65%
    22:00 +22°C° 0 mm 5 mps 763 mmHg 68%
    23:00 +21°C° 0 mm 4 mps 763 mmHg 71%

    30 June, Saturday

    Time Temperature Precipitation Wind Pressure Humidity
    00:00 +21°C° 0 mm 4 mps 763 mmHg 74%
    01:00 +20°C° 0 mm 4 mps 763 mmHg 75%
    02:00 +20°C° 0 mm 4 mps 762 mmHg 76%
    03:00 +19°C° 0 mm 4 mps 762 mmHg 77%
    04:00 +20°C° 0 mm 4 mps 762 mmHg 76%
    05:00 +21°C° 0 mm 4 mps 762 mmHg 74%
    06:00 +22°C° 0 mm 4 mps 762 mmHg 73%
    07:00 +25°C° 0 mm 4 mps 762 mmHg 68%
    08:00 +26°C° 0 mm 4 mps 762 mmHg 64%
    09:00 +28°C° 0 mm 5 mps 762 mmHg 59%
    10:00 +30°C° 0.1 mm 5 mps 761 mmHg 56%
    11:00 +32°C° 0.1 mm 5 mps 761 mmHg 53%
    12:00 +33°C° 0.1 mm 5 mps 761 mmHg 50%
    13:00 +33°C° 0.3 mm 5 mps 760 mmHg 50%
    14:00 +34°C° 0.3 mm 5 mps 760 mmHg 50%
    15:00 +34°C° 0.3 mm 4 mps 760 mmHg 50%
    16:00 +33°C° 0.5 mm 4 mps 760 mmHg 53%
    17:00 +31°C° 0.5 mm 3 mps 760 mmHg 57%
    18:00 +31°C° 0.5 mm 2 mps 759 mmHg 61%
    19:00 +29°C° 0.8 mm 2 mps 760 mmHg 66%
    20:00 +27°C° 0.8 mm 2 mps 760 mmHg 72%
    21:00 +26°C° 0.8 mm 2 mps 760 mmHg 77%
    22:00 +25°C° 0 mm 2 mps 760 mmHg 79%
    23:00 +25°C° 0 mm 2 mps 760 mmHg 81%
    Show more